This is the latest recevied weather packets stored in our database for station/object N0QV. If no packets are shown the sender has not sent any weather packets the latest 10 day(s).
| Time | Temp. | Humidity | Pressure | Rain* | Wind** | Luminosity | Snow |
|---|---|---|---|---|---|---|---|
| 1777966958 | 3.89° C | 64% | 1008.1 hPa | 0 mm | - | 0 W/m² | - |
| 1777966655 | 3.33° C | 63% | 1008.3 hPa | 0 mm | - | 0 W/m² | - |
| 1777966353 | 3.89° C | 62% | 1008.2 hPa | 0 mm | - | 0 W/m² | - |
| 1777966050 | 3.89° C | 62% | 1008.2 hPa | 0 mm | - | 0 W/m² | - |
| 1777965746 | 3.89° C | 61% | 1008.1 hPa | 0 mm | - | 0 W/m² | - |
| 1777965441 | 3.89° C | 61% | 1008.2 hPa | 0 mm | - | 0 W/m² | - |
| 1777965139 | 3.89° C | 60% | 1008 hPa | 0 mm | - | 0 W/m² | - |
| 1777964836 | 4.44° C | 59% | 1008.1 hPa | 0 mm | - | 0 W/m² | - |
| 1777964532 | 5° C | 58% | 1008.2 hPa | 0 mm | - | 0 W/m² | - |
| 1777964228 | 5° C | 57% | 1008.1 hPa | 0 mm | - | 0 W/m² | - |
| 1777963925 | 5° C | 57% | 1008.4 hPa | 0 mm | - | 0 W/m² | - |
| 1777963622 | 5.56° C | 55% | 1008.3 hPa | 0 mm | - | 0 W/m² | - |
| 1777963320 | 5.56° C | 54% | 1008 hPa | 0 mm | - | 0 W/m² | - |
| 1777963017 | 5.56° C | 53% | 1008.2 hPa | 0 mm | - | 0 W/m² | - |
| 1777962713 | 6.11° C | 53% | 1008.2 hPa | 0 mm | - | 0 W/m² | - |
| 1777962409 | 6.11° C | 52% | 1008.3 hPa | 0 mm | - | 0 W/m² | - |
| 1777962107 | 6.11° C | 51% | 1008.2 hPa | 0 mm | - | 0 W/m² | - |
| 1777961804 | 6.11° C | 51% | 1008.3 hPa | 0 mm | - | 0 W/m² | - |
| 1777961502 | 6.11° C | 51% | 1008 hPa | 0 mm | - | 0 W/m² | - |
| 1777961199 | 6.67° C | 50% | 1008.2 hPa | 0 mm | - | 0 W/m² | - |
| 1777960896 | 6.67° C | 50% | 1008.1 hPa | 0 mm | - | 0 W/m² | - |
| 1777960591 | 6.67° C | 49% | 1008.1 hPa | 0 mm | - | 0 W/m² | - |
| 1777960288 | 6.67° C | 50% | 1008.3 hPa | 0 mm | - | 0 W/m² | - |
| 1777959986 | 6.67° C | 50% | 1008.1 hPa | 0 mm | - | 0 W/m² | - |
| 1777959684 | 6.67° C | 50% | 1008.3 hPa | 0 mm | - | 0 W/m² | - |
* Rain latest hour (hover to see other rain measurements)
** Current wind speed in m/s (hover to see current wind gust speed)